Regional Weather Roundup
Issued by NWS

Home | Current Version | Previous Version | Text Only | Print | Product List | Glossary Off
Versions: 1 2 3 4 5 6 7 8 9 10 11 12 13 14 15 16 17 18 19 20 21 22 23 24 25 26 27 28 29 30 31 32 33 34 35 36 37 38 39 40 41 42 43 44 45 46 47 48 49 50

000
ASUS43 KLMK 292202
RWRKY
KENTUCKY REGIONAL WEATHER ROUNDUP
NATIONAL WEATHER SERVICE LOUISVILLE KY
600 PM EDT WED OCT 29 2014

NOTE "FAIR" INDICATES FEW OR NO CLOUDS BELOW 12,000 FEET
WITH NO SIGNIFICANT WEATHER AND/OR OBSTRUCTIONS TO VISIBILITY.

KYZ001>023-026-027-061>063-070>075-292300-
WESTERN AND SOUTH CENTRAL KENTUCKY

CITY           SKY/WX    TMP DP  RH WIND       PRES   REMARKS
PADUCAH        SUNNY     63  33  32 NW9       30.12S
HENDERSON      CLEAR     59  36  41 NW12      30.11S
OWENSBORO      CLEAR     59  37  43 NW13      30.12R
HOPKINSVILLE   CLEAR     62  33  34 W13G21    30.10F
BOWLING GREEN  CLEAR     64  32  30 NW10      30.10S
GLASGOW        NOT AVBL
$$

KYZ024-025-028>034-038-045-046-053-292300-
NORTH CENTRAL KENTUCKY

CITY           SKY/WX    TMP DP  RH WIND       PRES   REMARKS
LOUISVILLE/SDF CLEAR     60  35  39 W9        30.07S
LOUISVILLE/LOU CLEAR     60  34  37 W14       30.08R
FORT KNOX      CLEAR     58  36  43 W12G18    30.07S
$$

KYZ035>037-039>044-047>052-055>060-089>105-292300-
NORTHEAST KENTUCKY

CITY           SKY/WX    TMP DP  RH WIND       PRES   REMARKS
LEXINGTON      CLEAR     61  33  35 W10G18    30.06S
COVINGTON      PTCLDY    55  34  45 N12       30.06R
FRANKFORT      CLEAR     59  32  36 W8        30.06R
$$

KYZ054-064>069-076>088-106>120-292300-
SOUTHEAST KENTUCKY

CITY           SKY/WX    TMP DP  RH WIND       PRES   REMARKS
JACKSON        CLEAR     59  31  34 NW8       30.05R
LONDON         PTCLDY    61  33  35 W12       30.07R
SOMERSET       PTCLDY    59  36  41 NW7G16    30.09S
MIDDLESBORO    NOT AVBL
MONTICELLO     PTCLDY    63  38  39 NW8       30.10S
$$




USA.gov is the U.S. government's official web portal to all federal, state and local government web resources and services.